Location: Aytr�
(46.1357°N, 1.1145°W)
Time: 17:02:31
(UTC+00:00)

Cosmos 1844 Rocket - Pass Details

Date: 03 March 2021
Orbit: 826 x 843 km, 71.0° (Epoch: 15 April)

Event Time Altitude Azimuth Distance (km) Brightness Sun altitude
Rises 18:21:05 0° 338° (NNW) 3,376 6.1 -5.5°
Reaches altitude 10° 18:23:45 10° 348° (NNW) 2,438 5.2 -6.0°
Maximum altitude 18:28:50 35° 53° (NE) 1,318 3.3 -6.9°
Drops below altitude 10° 18:33:53 10° 118° (ESE) 2,427 4.6 -7.7°
Enters shadow 18:35:42 - 125° (SE) 3,062 5.1 -8.1°
